Погода в Малиновке

Погода в Малиновке : погода сейчас, прогноз погоды и архив. Всё, что Вы хотите узнать о погоде в Малиновке!

Поиск расширенной информации на нашем сайте:

Другие новости

Новости СМИ2

Главная страница сайта

Новости сайта

03.07.2017

Напоминаем, что на нашем специализированном сайте Метеоцентр.Азия вы можете получить высокодетализированные автоматические прогнозы погоды по пунктам России, СНГ и мира в авиационном формате (включающие направление и скорость ветра, видимость, явления погоды, количество и форму облачности, нижнюю и верхнюю границу облачности).


Погода в Малиновке - сегодня

Время (UTC), дата Ветер
(°,м/с) 
Видим.   Явления Облачность Т
(°С)
Тd
(°С)
f(%) Тe
(°С)
Pmin
(гПа)
dP
(гПа)
Po
(мм)
O2
(г/м3)
Тmin Tmax R s Состояние
почвы
12 21.11.17 110 (В) 6000 м  слаб. снег  10/0 средняя 
[As op]
-8.8 -10.9 85 -9  1010.9  -0.8  747  312    -8.4     
15 21.11.17 080 (В) 9000 м  слаб. снег  10/0 средняя 
[As op]
-9.1 -11.2 85 -9  1009.1  -1.7  746  312           
18 21.11.17 040 (СВ) 7000 м  слаб. снег  10/0 средняя 
[As op]
-10.2 -12.3 85 -12  1008.3  -0.9  745  313           
21 21.11.17 360 (С) 6000 м  слаб. снег  10/0 средняя 
[As op]
-11.2 -13.4 84 -13  1008.1  -0.2  745  314           
00 22.11.17 350 (С) 20000 м  слаб. снег  10/0 средняя, верхняя 
[Ac trans|Ci fib]
-12.8 -15.3 82 -15  1009.4  1.1  746  317  -13.1    равномерный
сухой снег
100% 
03 22.11.17 340 (С) 20000 м  {снег}  1/0 средняя 
[Ac trans]
-9.3 -16.1 58 -13  1009.4  0.2  746  312           
06 22.11.17 300 (СЗ) 20000 м  {снег}  1/0 верхняя 
[Ci fib]
-9.4 -16.8 55 -13  1010.6  1.2  747  313           
09 22.11.17 330 (СЗ) 50000 м    3/0 верхняя 
[Ci fib]
-15 -20.4 63 -17  1012.8  1.2  748  320           
15 22.11.17 310 (СЗ) 50000 м    3/0 верхняя 
[Ci fib]
-22 -24.4 81 -25  1014.4  0.5  749  330           
18 22.11.17 тихо ()   50000 м    ясно 
-23.7 -26.4 78 -24  1014.5  749  332           
21 22.11.17 тихо ()   50000 м    8/0 верхняя 
[Ci fib]
-24 -26.9 77 -24  1014.5  749  333           
00 23.11.17 тихо ()   20000 м    10/0 верхняя 
[Ci fib]
-21.2 -24.1 77 -21  1014.8  0.4  749  329  -25.2      равномерный
сухой снег
100% 
03 23.11.17 330 (СЗ) 15000 м  слаб. снег  10/0 средняя, верхняя 
[Ac trans|Cs]
-13.5 -18.6 65 -13  1014.2  0.1  749  319           
06 23.11.17 310 (СЗ) 20000 м  {снег}  6/3 1000 м верхняя 
[Cu hum|Ci fib]
-12.4 -19.7 54 -16  1013.9  -0.2  749  318           
09 23.11.17 310 (СЗ) 50000 м    ясно 
-17.7 -23.3 62 -20  1016.2  1.9  751  325           
15 23.11.17 тихо ()   50000 м    ясно 
-25.5 -28.2 78 -26  1016.6  -0.5  750  335           
18 23.11.17 330 (СЗ) 50000 м    ясно 
-28.1 -30.9 77 -29  1016.4  -0.3  750  339           
21 23.11.17 310 (СЗ) 50000 м    ясно 
-29.7 -33.3 71 -30  1016.2  -0.3  750  341           
00 24.11.17 тихо ()   20000 м  в посл. час туман  1/0 верхняя 
[Ci fib]
-27.2 -30.4 74 -27  1017.1  751  338  -30.1      равномерный
сухой снег
100% 
03 24.11.17 210 (ЮЗ) 20000 м    ясно 
-17.1 -24.4 53 -17  1016.2  -0.2  751  324           
06 24.11.17 300 (СЗ) 20000 м    ясно 
-16.4 -26.8 40 -20  1016  -0.2  750  323           
09 24.11.17 300 (СЗ) 50000 м    ясно 
-21.5 -26.1 66 -22  1017.9  1.6  752  330           
15 24.11.17 320 (СЗ) 50000 м    ясно 
-31.4 -35.1 70 -32  1018.8  -0.3  752  344           
18 24.11.17 тихо ()   0500 м  туман  ?/?  
-27.1 -30.2 75 -27  1018.3  -0.2  752  338           
21 24.11.17 300 (СЗ) 0500 м  переохл. туман  ясно 
-28.7 -32.1 72 -29  1018.1  -0.2  751  340           
Время (UTC), дата Ветер
(°,м/с) 
Видим.   Явления Облачность Т
(°С)
Тd
(°С)
f(%) Тe
(°С)
Pmin
(гПа)
dP
(гПа)
Po
(мм)
O2
(г/м3)
Тmin Tmax R s Состояние
почвы

Для получения пояснительной информации подведите курсор к названию столбца.

ПОГОДА в Малиновке - архив

Всё, что Вы хотите узнать о погоде в Малиновке - удобно и подробно!

Выберите нужную дату (начиная с 1 января 2015* года) и нажмите кнопку "Найти".
Будут отображены архивные сводки погоды по пункту Малиновка, начиная с указанной даты.


Отображать данные в формате CSV (для использования в таблицах Excel)


Внимание! Наш архив погоды предназначен исключительно для личного некоммерческого использования в познавательных целях. Если Вам необходимы официальные справки о состоянии погоды (для производственных, юридических, коммерческих и т.п. целей), обращайтесь в органы Росгидромета.

*Примечание: данная дата относится к архиву по метеостанциям СССР (Россия, СНГ, Балтия).
Архив по метеостанциям Зарубежной Европы и Азии (кроме Китая) хранится 10 дней, по другим регионам земного шара (Китай, Африка, Америка, Австралия, Океания) - 1 день.

Малиновка - район местоположения метеостанции


Название, широта, долгота, высота метеостанции:
Малиновка 49.8°ш. 129.9°д. 116 м над ур. моря [Российская Федерация]

Дополнительная информация

В oтличие oт бoльшинства пoгoдных сайтoв мы публикуем пoдрoбную метеoинфoрмацию в детальнoм прoфессиoнальнoм фoрмате.

Характеристики температуры и влажнoсти вoздуха измеряются на высoте 2 м в тени вдали oт зданий и деревьев.
Скoрoсть ветра измеряется на высoте 10 м (на урoвне рoста челoвека скoрoсть ветра ниже в 1.5-2 раза). Если метеoстанция нахoдится в гoрoде или в лесу, тo скoрoсть ветра занижена на 2-4 м/с пo сравнению с oткрытым местoм. Скoрoсть ветра над акватoриями крупных рек и oзёр, а также на вершинах хoлмoв на 2-5 м/с выше, чем в oбычных услoвиях.
Атмoсфернoе давление в разных тoчках местнoсти мoжет значительнo oтличаться oт давления на метеoстанции, в зависимoсти oт услoвий рельефа (при пoдъёме на 10 м давление пoнижается примернo на 1 мм рт.ст.).